Vorticity
11 9 7 6 8 8 10 10 10 6 5 5 4 6 6 9 9 7 6 7 7 8 11 13 13 15 14 11 11 8 6 8 5 4 3 4 5 5 3 4 5 5 6 6 5
7 6 7 9 6 8 9 6 5 3 4 4 4 5 6 6 5 5 7 8 8 8 8 8 12 13 13 15 17 15 11 5 9 9 9 6 6 4 5 6 5 4 5 6 6
7 8 7 7 6 7 7 4 3 4 3 4 4 6 7 5 6 4 6 9 10 10 10 12 11 12 13 13 18 21 19 17 9 10 11 11 12 11 10 7 6 7 7 8 7
5 8 8 7 5 7 4 5 4 4 3 2 4 5 6 6 5 7 8 9 12 12 14 15 18 20 24 9 9 10 13 21 20 13 11 11 12 9 11 10 10 9 9 10 10
6 6 7 6 6 5 6 4 5 4 4 3 3 6 6 5 6 4 4 3 3 3 3 4 -0 1 5 19 19 3 2 8 16 16 15 14 12 11 9 9 9 8 7 7 7
11 5 5 8 8 6 4 6 7 6 5 5 4 6 3 7 6 3 3 4 4 4 4 3 1 3 6 10 12 11 16 11 4 3 13 14 10 10 11 11 8 8 8 8 7
10 7 5 6 8 7 3 4 4 5 5 5 5 4 5 6 4 6 3 5 5 6 9 14 15 15 9 6 2 11 20 10 7 13 13 4 2 8 11 11 11 10 7 5 3
4 10 5 6 6 6 5 5 4 3 4 4 5 6 6 4 4 5 4 5 3 1 4 9 6 6 12 1 11 9 14 10 19 11 8 8 14 13 7 2 -0 -0 1 4 8
6 6 7 8 5 6 7 3 3 3 4 5 5 5 5 4 5 5 3 4 3 4 3 6 5 5 8 9 6 9 16 10 15 15 15 11 11 9 10 12 15 15 14 12 10
9 4 7 8 7 5 5 5 4 3 5 7 10 6 4 5 4 7 3 2 5 3 2 3 2 2 7 3 9 10 11 20 12 14 17 14 12 14 12 11 12 12 11 10 9
11 7 3 7 10 6 4 5 5 4 2 5 9 10 13 4 4 8 1 8 3 3 6 2 3 4 3 4 5 6 9 9 22 12 12 15 12 10 11 12 10 9 8 8 8
31 9 3 6 8 9 6 4 6 6 4 5 10 7 9 10 8 6 6 6 4 0 3 6 2 4 5 6 5 7 5 4 6 16 11 10 11 11 12 11 10 9 9 9 9
5 41 7 2 7 9 8 5 4 6 5 1 7 10 6 4 6 6 6 9 3 5 2 7 3 4 5 6 8 8 7 7 12 12 12 13 8 8 8 8 9 8 8 8 8
24 10 39 12 -5 8 10 7 6 6 7 6 3 10 10 6 7 8 14 10 9 6 4 5 4 4 7 10 9 9 7 6 1 3 16 10 15 10 7 9 9 9 8 7 7
17 20 17 33 6 -1 10 7 7 5 10 9 3 6 13 7 9 10 8 7 9 7 7 7 6 7 10 8 6 1 6 7 5 6 7 13 14 14 11 7 7 7 8 6 6
15 26 6 21 25 -2 6 8 7 9 8 9 11 10 16 12 17 9 10 13 12 9 6 5 5 11 6 4 4 -0 7 15 13 11 8 9 11 9 14 12 11 10 10 8 8
5 19 29 38 18 14 3 7 7 6 4 2 -4 4 15 14 14 13 11 10 8 7 7 7 10 6 5 2 4 1 6 14 16 16 13 13 12 11 10 9 6 6 6 8 7
5 8 18 13 21 24 6 9 5 5 6 -8 29 9 1 -3 1 5 6 5 5 7 7 8 6 4 3 -0 -0 1 12 13 10 15 15 9 9 9 9 10 6 7 7 6 8
11 9 3 -13 19 18 22 -4 -4 9 6 5 2 -10 4 10 11 17 12 11 9 6 8 7 6 4 3 1 1 0 6 13 11 13 13 13 17 14 10 8 6 5 5 7 6
11 13 10 23 2 9 28 27 10 3 5 7 5 4 4 4 1 2 3 3 3 8 8 7 6 5 3 1 2 2 1 7 8 8 11 13 13 13 10 5 4 6 6 5 4
8 15 -2 28 8 13 22 19 31 5 5 4 4 4 6 6 6 6 7 9 8 9 11 10 7 6 3 2 2 3 3 7 10 8 6 10 12 15 8 6 4 4 3 6 4
7 12 3 13 16 -21 18 17 17 17 6 7 6 5 3 4 4 6 6 7 7 9 9 7 6 6 1 2 3 3 3 4 9 11 7 6 9 12 10 7 4 6 4 5 5
16 7 16 7 11 50 10 17 20 23 5 7 6 6 4 4 5 5 6 6 7 6 9 8 8 7 5 6 7 5 6 3 7 7 11 9 13 11 8 8 10 9 8 5 9
21 14 8 12 -1 12 -22 16 22 13 16 4 7 6 4 4 4 5 5 6 7 7 7 7 7 7 6 6 5 6 6 6 5 11 4 21 6 10 7 8 8 6 6 7 5
25 17 13 0 4 16 -6 1 21 24 14 9 7 6 4 4 5 6 5 6 7 8 7 7 6 7 8 8 9 7 8 6 6 5 7 4 13 6 10 8 7 6 8 7 7
13 29 12 6 4 4 7 11 3 26 7 19 8 4 4 7 8 6 5 6 4 6 5 6 6 7 7 9 9 6 11 6 7 5 5 5 12 6 9 12 11 9 6 7 8
7 -26 39 16 8 11 20 5 -2 21 23 10 20 7 4 4 7 6 4 4 3 5 8 6 7 9 7 9 8 6 10 7 3 5 10 13 9 9 9 7 7 7 7 9 8
Height
5759 5758 5757 5757 5758 5758 5757 5757 5756 5756 5757 5757 5757 5757 5756 5756 5755 5755 5754 5754 5753 5752 5752 5752 5751 5751 5752 5753 5754 5755 5757 5759 5761 5763 5763 5769 5767 5769 5772 5774 5775 5777 5778 5783 5783
5753 5753 5753 5752 5752 5753 5753 5752 5752 5752 5752 5752 5753 5753 5753 5752 5752 5751 5751 5750 5749 5748 5747 5747 5746 5746 5745 5746 5747 5747 5749 5749 5753 5754 5756 5759 5760 5763 5765 5766 5768 5769 5772 5774 5777
5749 5748 5747 5747 5747 5747 5747 5748 5747 5747 5747 5748 5748 5749 5749 5748 5749 5748 5748 5746 5745 5744 5743 5742 5742 5741 5741 5740 5741 5741 5741 5742 5744 5747 5749 5751 5752 5756 5756 5758 5759 5760 5765 5767 5769
5744 5743 5742 5740 5740 5741 5741 5741 5742 5742 5742 5743 5744 5744 5744 5745 5747 5745 5744 5743 5742 5741 5740 5739 5738 5737 5736 5736 5736 5736 5736 5736 5738 5740 5741 5743 5746 5747 5749 5749 5752 5753 5757 5759 5761
5736 5737 5736 5736 5733 5733 5734 5735 5735 5736 5738 5739 5739 5740 5740 5741 5741 5741 5740 5740 5738 5737 5736 5735 5735 5734 5733 5732 5732 5732 5731 5731 5732 5733 5734 5736 5738 5740 5742 5744 5745 5747 5749 5751 5753
5729 5728 5728 5730 5729 5726 5726 5727 5729 5730 5731 5733 5734 5735 5736 5737 5736 5736 5736 5736 5735 5734 5733 5732 5731 5731 5730 5728 5728 5727 5726 5726 5727 5727 5728 5729 5731 5734 5735 5737 5739 5740 5743 5745 5746
5718 5720 5719 5720 5722 5722 5719 5719 5721 5723 5725 5726 5728 5729 5730 5732 5731 5732 5732 5732 5731 5730 5729 5728 5727 5727 5726 5725 5723 5722 5722 5721 5721 5721 5722 5723 5725 5727 5730 5730 5732 5734 5735 5737 5739
5706 5708 5710 5709 5711 5714 5714 5712 5712 5715 5717 5719 5721 5722 5724 5725 5726 5727 5727 5727 5727 5726 5725 5724 5724 5723 5722 5721 5719 5718 5717 5715 5716 5715 5715 5717 5717 5719 5722 5723 5725 5727 5728 5730 5731
5694 5695 5696 5700 5700 5703 5706 5706 5705 5706 5709 5711 5714 5715 5717 5719 5720 5721 5722 5722 5722 5722 5721 5720 5720 5719 5718 5717 5716 5714 5712 5710 5710 5708 5708 5709 5710 5713 5714 5716 5718 5719 5720 5722 5722
5677 5680 5684 5685 5688 5692 5695 5697 5698 5698 5700 5703 5705 5708 5710 5711 5713 5714 5715 5716 5717 5717 5716 5716 5715 5714 5714 5713 5712 5710 5708 5706 5704 5704 5702 5703 5703 5705 5707 5709 5711 5712 5713 5714 5715
5659 5664 5668 5671 5675 5679 5684 5687 5691 5691 5692 5694 5697 5698 5700 5703 5705 5707 5708 5710 5711 5711 5711 5711 5711 5710 5709 5708 5707 5706 5704 5702 5700 5699 5697 5697 5697 5698 5701 5703 5704 5705 5706 5707 5709
5641 5647 5653 5656 5662 5665 5672 5676 5678 5680 5683 5685 5688 5690 5693 5694 5697 5699 5701 5703 5704 5705 5705 5706 5704 5704 5704 5703 5702 5701 5700 5698 5696 5694 5693 5692 5692 5693 5695 5697 5698 5699 5700 5701 5702
5624 5630 5636 5642 5647 5652 5660 5665 5667 5668 5670 5676 5678 5682 5685 5687 5689 5691 5693 5695 5697 5698 5698 5698 5700 5699 5698 5698 5697 5696 5695 5694 5692 5690 5689 5688 5688 5688 5689 5690 5692 5693 5694 5695 5695
5608 5615 5619 5625 5634 5641 5647 5652 5655 5657 5659 5666 5669 5671 5677 5679 5680 5684 5685 5687 5689 5690 5691 5692 5693 5693 5692 5692 5692 5691 5690 5689 5687 5686 5683 5683 5681 5683 5683 5684 5685 5686 5687 5688 5688
5593 5599 5604 5611 5617 5627 5634 5638 5642 5647 5647 5656 5661 5665 5667 5670 5675 5675 5677 5679 5681 5683 5685 5687 5687 5687 5686 5687 5687 5687 5685 5684 5682 5680 5679 5678 5676 5676 5676 5677 5679 5680 5680 5680 5680
5581 5583 5589 5596 5604 5610 5619 5625 5629 5635 5634 5644 5651 5656 5659 5661 5663 5666 5669 5672 5673 5675 5677 5680 5680 5681 5681 5680 5680 5680 5678 5676 5675 5673 5673 5672 5671 5670 5671 5671 5672 5672 5672 5673 5673
5567 5571 5574 5582 5590 5594 5601 5609 5614 5619 5629 5636 5643 5648 5650 5653 5656 5658 5661 5664 5667 5668 5670 5672 5673 5674 5675 5675 5674 5674 5672 5668 5667 5666 5666 5665 5665 5665 5666 5665 5666 5666 5666 5667 5667
5552 5557 5561 5568 5574 5582 5585 5590 5599 5613 5620 5627 5633 5638 5642 5645 5648 5651 5654 5656 5659 5661 5662 5664 5667 5667 5668 5668 5668 5667 5665 5663 5659 5659 5659 5659 5659 5662 5660 5660 5659 5659 5660 5660 5660
5538 5543 5549 5557 5561 5568 5572 5573 5592 5601 5609 5618 5624 5629 5633 5636 5641 5642 5646 5649 5652 5654 5656 5657 5659 5661 5661 5661 5662 5661 5659 5657 5654 5653 5652 5654 5654 5654 5653 5653 5652 5652 5653 5653 5651
5523 5529 5537 5544 5549 5554 5557 5568 5580 5586 5598 5608 5613 5618 5624 5629 5631 5634 5637 5642 5644 5646 5649 5650 5652 5654 5654 5655 5655 5654 5654 5652 5649 5647 5646 5648 5648 5647 5647 5645 5644 5644 5645 5643 5641
5508 5513 5524 5529 5534 5535 5541 5555 5569 5575 5584 5595 5602 5607 5613 5620 5623 5626 5629 5634 5635 5638 5640 5642 5644 5648 5647 5649 5648 5649 5647 5645 5643 5642 5640 5642 5643 5643 5639 5637 5635 5637 5636 5632 5631
5494 5499 5509 5515 5516 5522 5534 5544 5553 5563 5573 5582 5590 5597 5603 5609 5614 5618 5621 5625 5628 5630 5632 5633 5634 5638 5640 5640 5641 5641 5641 5639 5637 5637 5635 5632 5639 5635 5631 5628 5628 5630 5626 5623 5620
5478 5487 5493 5498 5504 5513 5528 5531 5539 5549 5559 5568 5578 5585 5592 5599 5604 5609 5612 5618 5619 5621 5624 5627 5627 5629 5631 5634 5634 5634 5633 5632 5630 5629 5629 5625 5628 5626 5622 5619 5621 5619 5616 5613 5610
5466 5474 5481 5484 5495 5508 5516 5520 5526 5537 5547 5555 5564 5573 5581 5587 5593 5599 5604 5608 5611 5613 5616 5617 5620 5622 5622 5624 5626 5626 5625 5624 5623 5623 5618 5623 5617 5615 5613 5612 5612 5609 5606 5603 5600
5450 5457 5468 5475 5485 5498 5504 5511 5519 5526 5536 5545 5552 5561 5570 5577 5583 5587 5594 5599 5602 5605 5606 5608 5612 5614 5613 5615 5616 5618 5618 5616 5615 5614 5611 5611 5611 5609 5604 5602 5601 5598 5595 5591 5587
5438 5448 5456 5467 5475 5483 5492 5501 5510 5517 5525 5535 5544 5552 5558 5566 5574 5577 5583 5587 5590 5594 5597 5600 5602 5605 5605 5606 5607 5608 5610 5608 5607 5605 5603 5601 5603 5596 5596 5594 5591 5587 5584 5581 5576
5430 5440 5444 5455 5463 5470 5483 5496 5505 5508 5517 5525 5534 5537 5544 5554 5559 5566 5571 5576 5580 5585 5589 5591 5593 5596 5595 5599 5597 5600 5603 5599 5599 5596 5594 5592 5591 5589 5587 5585 5581 5577 5574 5570 5565